Vorticity
8 7 8 9 8 7 6 5 3 4 6 7 7 9 12 6 8 12 8 6 6 7 7 6 6 5 11 5 2 5 7 7
6 4 5 3 6 5 4 4 5 5 6 9 8 7 11 1 8 8 7 7 11 7 6 5 5 5 6 8 9 4 6 6
7 7 7 7 7 5 4 5 5 8 9 9 7 7 9 5 6 8 8 9 10 8 9 5 8 8 8 5 6 5 3 5
6 7 6 5 5 5 5 5 7 7 5 5 6 8 10 5 5 9 10 9 10 8 8 10 10 10 9 8 9 9 9 7
4 4 3 4 5 6 7 6 4 4 4 3 3 5 4 4 5 5 7 7 6 5 5 5 5 6 7 7 8 8 9 7
6 7 6 7 7 7 7 6 4 3 3 4 5 5 5 7 7 6 5 4 1 1 1 3 2 1 2 2 3 3 4 3
5 6 6 6 6 6 6 6 6 6 7 7 7 6 5 6 6 5 6 4 2 2 1 1 2 2 2 3 5 4 2 2
6 7 7 7 6 6 6 5 5 5 4 4 3 4 4 4 5 6 4 5 2 0 1 1 1 1 1 1 1 2 2 3
8 6 4 4 4 4 4 5 4 5 5 6 6 6 6 5 4 4 3 4 6 4 2 0 1 1 -1 0 2 1 1 1
7 6 4 4 3 2 2 2 2 2 2 2 2 3 3 4 4 3 4 5 5 5 6 8 8 6 5 3 4 4 4 3
-0 1 6 7 8 9 10 10 9 9 9 8 9 9 7 7 8 8 6 3 5 5 4 3 4 3 4 5 5 5 3 3
6 6 5 5 6 5 6 8 9 8 10 13 11 11 10 8 8 6 7 8 10 10 9 9 9 8 6 7 7 6 4 4
6 6 5 6 6 10 7 9 12 17 18 14 14 13 11 11 14 15 14 14 17 14 13 10 10 12 9 7 4 3 4 8
8 6 9 9 4 6 11 11 14 5 7 4 8 8 15 22 27 22 17 18 16 12 10 10 12 19 14 9 3 13 9 6
7 8 2 10 21 14 8 14 4 13 6 2 20 27 14 11 10 0 9 23 28 25 26 19 17 19 15 12 17 14 16 17
0 8 23 20 12 18 4 10 7 6 16 19 11 12 4 10 9 10 11 10 13 12 19 25 21 15 28 29 15 12 8 3
10 21 21 24 16 5 6 10 20 18 0 13 8 7 10 10 11 18 21 16 11 12 17 21 21 21 20 23 29 25 24 9
18 5 4 12 14 22 23 12 12 13 7 7 8 15 16 14 8 2 -3 18 14 15 16 14 16 20 22 24 20 23 26 22
19 19 12 2 3 13 4 8 7 6 8 8 12 7 2 10 3 3 10 22 15 14 13 13 14 11 16 18 18 17 17 18
-22 3 9 7 -3 12 -1 7 8 6 3 6 14 10 4 5 8 13 27 17 16 11 8 10 11 13 21 14 22 13 13 15
Height
5818 5817 5817 5817 5817 5818 5818 5817 5816 5816 5815 5814 5813 5813 5812 5810 5809 5806 5805 5803 5803 5802 5801 5801 5800 5800 5800 5800 5800 5802 5802 5803
5813 5813 5814 5814 5814 5813 5812 5812 5812 5811 5810 5808 5807 5804 5804 5803 5802 5801 5800 5799 5798 5798 5796 5795 5795 5795 5795 5795 5796 5797 5797 5798
5808 5808 5807 5807 5806 5806 5806 5805 5804 5803 5802 5800 5800 5798 5797 5797 5796 5794 5793 5793 5793 5793 5793 5791 5789 5790 5790 5790 5790 5791 5792 5792
5800 5799 5799 5799 5798 5798 5797 5796 5795 5794 5793 5793 5792 5792 5790 5789 5789 5789 5788 5788 5786 5786 5787 5786 5785 5784 5784 5784 5785 5785 5786 5786
5796 5795 5794 5793 5792 5792 5791 5789 5788 5786 5785 5785 5784 5784 5782 5783 5783 5781 5781 5781 5781 5780 5780 5779 5779 5779 5779 5778 5778 5779 5779 5780
5787 5787 5786 5786 5785 5784 5782 5781 5780 5779 5778 5776 5776 5775 5774 5774 5773 5773 5773 5773 5773 5773 5773 5772 5772 5773 5773 5773 5773 5773 5773 5773
5780 5779 5778 5777 5777 5775 5774 5773 5772 5770 5768 5766 5766 5765 5764 5764 5764 5763 5762 5763 5763 5763 5764 5764 5764 5764 5764 5765 5765 5766 5766 5766
5773 5772 5770 5768 5766 5765 5763 5762 5761 5759 5758 5757 5757 5755 5755 5754 5754 5753 5753 5751 5752 5752 5752 5753 5754 5754 5754 5755 5756 5757 5757 5758
5763 5762 5760 5759 5757 5755 5754 5752 5750 5749 5748 5745 5744 5743 5742 5741 5741 5740 5739 5740 5740 5740 5740 5741 5741 5742 5743 5744 5745 5745 5746 5747
5756 5754 5752 5750 5748 5745 5743 5742 5740 5738 5735 5733 5732 5730 5729 5728 5727 5726 5726 5725 5725 5725 5725 5726 5727 5727 5729 5731 5732 5733 5733 5734
5746 5744 5743 5740 5737 5734 5733 5731 5729 5726 5723 5721 5719 5716 5714 5712 5711 5711 5711 5710 5710 5710 5710 5710 5711 5711 5713 5714 5717 5718 5719 5721
5736 5734 5733 5729 5726 5725 5723 5722 5718 5715 5712 5709 5707 5704 5701 5698 5696 5694 5693 5692 5692 5692 5692 5692 5692 5695 5697 5698 5698 5700 5703 5705
5722 5721 5719 5716 5714 5713 5711 5708 5705 5703 5700 5697 5693 5690 5687 5684 5681 5678 5676 5674 5674 5673 5673 5673 5672 5674 5677 5681 5680 5683 5685 5687
5711 5708 5705 5705 5704 5701 5698 5696 5694 5692 5689 5685 5681 5678 5674 5671 5667 5664 5661 5658 5656 5654 5653 5653 5652 5653 5657 5659 5662 5662 5667 5667
5696 5692 5694 5696 5694 5690 5688 5686 5684 5681 5678 5675 5671 5666 5662 5659 5655 5651 5647 5643 5640 5638 5636 5635 5633 5633 5634 5638 5642 5643 5646 5647
5684 5686 5686 5684 5682 5679 5677 5674 5672 5669 5666 5663 5659 5655 5651 5647 5643 5638 5634 5630 5626 5623 5619 5618 5617 5616 5615 5617 5620 5624 5627 5631
5677 5676 5675 5674 5670 5668 5666 5663 5661 5658 5655 5653 5648 5644 5640 5636 5632 5628 5623 5619 5615 5611 5608 5604 5602 5601 5601 5599 5601 5603 5608 5613
5667 5665 5665 5663 5660 5658 5656 5653 5651 5648 5644 5642 5638 5634 5631 5626 5623 5619 5614 5610 5604 5601 5597 5594 5591 5588 5587 5586 5586 5586 5588 5593
5659 5656 5655 5653 5652 5650 5646 5645 5641 5638 5635 5632 5629 5625 5621 5616 5613 5607 5602 5598 5594 5591 5588 5585 5582 5578 5575 5574 5573 5572 5574 5576
5648 5647 5646 5644 5643 5640 5639 5635 5632 5629 5626 5623 5618 5614 5610 5607 5603 5598 5592 5588 5586 5583 5580 5577 5573 5569 5566 5564 5561 5560 5560 5562